PASC

Details ICAO PASC (SCC)
Name DEADHORSE
Region USA (Alaska)
Timezone America/Anchorage (UTC-8.0)
Plans Departing 36
Arriving 43
Stats Elevation 64 ft / 20 m (AMSL)
Location 70.194754° -148.465162°
Runways 1
Magnetic Variation 17.748° E
Sunrise Unknown / Unknown
Sunset Unknown / Unknown
Advertisement - Login to hide

Runways

ID Width Length Bearing (true) Bearing (mag) Surface Threshold Offset Overrun Length
04 151 ft / 46 m 6,506 ft / 1,983 m 74.98° 57.23° Asphalt 0 ft / 0 m 0 ft / 0 m
22 151 ft / 46 m 6,506 ft / 1,983 m 255.03° 237.28° Asphalt 0 ft / 0 m 0 ft / 0 m

Approach Navaids

Runway Type Ident Frequency Range Bearing (true) Bearing (mag) Slope Elevation
04 Localiser ISCC 109.30 MHz 18 nm / 33 km 75.03° 57.28° - 64 ft / 20 m (AMSL)
04 Glidescope ISCC 109.30 MHz 10 nm / 19 km 75.00° 57.25° 3.00° 52 ft / 16 m (AMSL)

Map

Weather


0- 5 10 15 20 25 30 35+ Temperature / ° C

Clouds and Precipitation
Forecast for 2018-05-21 18:00 UTC. Updated 4 hours ago

Ground ~20,000 ft ~40,000 ft Winds

METAR

PASC 212053Z 07018KT 10SM OVC007 M02/M04 A2977

TAF

TAF PASC 211730Z 2118/2218 05020KT P6SM OVC004 FM220400 06018KT 4SM -SHSN BR OVC007

Frequencies

Recorded 118.40 MHz ATIS
Unicom 123.00 MHz UNICOM
Unicom 123.60 MHz CTAF
Warning: Do not use this data for real-world aviation or navigation. No guarantee of current accuracy is given.